This is the latest recevied weather packets stored in our database for station/object K1AWR. If no packets are shown the sender has not sent any weather packets the latest 10 day(s).
| Time | Temp. | Humidity | Pressure | Rain* | Wind** | Luminosity | Snow |
|---|---|---|---|---|---|---|---|
| 1777734401 | 12.22° C | 71% | 1012 hPa | 0 mm | - | 137 W/m² | - |
| 1777734097 | 12.78° C | 70% | 1012 hPa | 0 mm | - | 178 W/m² | - |
| 1777733793 | 12.78° C | 71% | 1012.1 hPa | 0 mm | - | 240 W/m² | - |
| 1777733490 | 12.22° C | 70% | 1012.1 hPa | 0 mm | - | 213 W/m² | - |
| 1777733186 | 12.78° C | 70% | 1012.1 hPa | 0 mm | - | 146 W/m² | - |
| 1777732883 | 12.78° C | 71% | 1012.4 hPa | 0 mm | - | 181 W/m² | - |
| 1777732580 | 12.78° C | 72% | 1012.1 hPa | 0 mm | - | 257 W/m² | - |
| 1777732278 | 12.22° C | 71% | 1012.3 hPa | 0 mm | - | 433 W/m² | - |
| 1777731974 | 12.22° C | 73% | 1012.1 hPa | 0 mm | - | 239 W/m² | - |
| 1777731671 | 11.67° C | 72% | 1012.4 hPa | 0 mm | - | 187 W/m² | - |
| 1777731369 | 11.67° C | 74% | 1012.3 hPa | 0 mm | - | 174 W/m² | - |
| 1777731066 | 11.67° C | 74% | 1012.3 hPa | 0 mm | - | 127 W/m² | - |
| 1777730765 | 11.67° C | 72% | 1012.3 hPa | 0 mm | - | 161 W/m² | - |
| 1777730460 | 11.67° C | 74% | 1012.3 hPa | 0 mm | - | 147 W/m² | - |
| 1777730156 | 11.67° C | 73% | 1012.4 hPa | 0 mm | - | 127 W/m² | - |
| 1777729853 | 11.67° C | 72% | 1012.2 hPa | 0 mm | - | 151 W/m² | - |
| 1777729550 | 12.22° C | 73% | 1012.2 hPa | 0 mm | - | 152 W/m² | - |
| 1777729247 | 12.22° C | 73% | 1012.3 hPa | 0 mm | - | 206 W/m² | - |
| 1777728944 | 12.78° C | 72% | 1012.3 hPa | 0 mm | - | 250 W/m² | - |
| 1777728640 | 12.22° C | 73% | 1012.4 hPa | 0 mm | - | 257 W/m² | - |
| 1777728338 | 12.78° C | 72% | 1012.2 hPa | 0 mm | - | 232 W/m² | - |
| 1777728034 | 13.33° C | 69% | 1012.1 hPa | 0 mm | - | 174 W/m² | - |
| 1777727731 | 13.33° C | 72% | 1012.2 hPa | 0 mm | - | 513 W/m² | - |
| 1777727428 | 12.22° C | 74% | 1012.3 hPa | 0 mm | - | 492 W/m² | - |
| 1777727126 | 12.78° C | 76% | 1012.4 hPa | 0 mm | - | 500 W/m² | - |
* Rain latest hour (hover to see other rain measurements)
** Current wind speed in m/s (hover to see current wind gust speed)